Location: Blériot-Plage
(50.9575°N, 1.8224°E)
Time: 12:32:08
(UTC+00:00)

USA 234 - Pass Details

Date: 15 May 2026
Orbit: 1102 x 1106 km, 123.0° (Epoch: 4 January)

Event Time Altitude Azimuth Distance (km) Brightness Sun altitude
Rises 22:40:09 0° 59° (ENE) 3,926 6.3 -18.4°
Reaches altitude 10° 22:43:04 10° 71° (ENE) 2,965 5.5 -18.5°
Maximum altitude 22:48:35 29° 129° (SE) 1,917 4.1 -18.7°
Enters shadow 22:49:36 27° 144° (SE) 1,961 4.0 -18.8°
